[Date Prev][Date Next][Thread Prev][Thread Next] - [Date Index][Thread Index][Author Index]
2 Line ISS Keps 12-22
- Subject: [sarex] 2 Line ISS Keps 12-22
- From: "Dave Larsen Ph.D." <doc@xxxxxxxxxxx>
- Date: Sun, 22 Dec 2002 03:49:23 -0800
ISS
1 25544U 98067A 02356.14155093 .00044558 00000-0 58747-3 0 5002
2 25544 51.6335 189.4797 0003763 301.7287 216.6443 15.57949444233429
----
Via the sarex mailing list at AMSAT.ORG courtesy of AMSAT-NA.
To unsubscribe, send "unsubscribe sarex" to Majordomo@amsat.org
AMSAT Home